Location: Cisewo
(53.3833°N, 14.9000°E)
Time: 11:23:25
(UTC+00:00)

Meteor 2-12 Rocket - Pass Details

Date: 18 April 2021
Orbit: 935 x 958 km, 82.5° (Epoch: 14 May)

Event Time Altitude Azimuth Distance (km) Brightness Sun altitude
Rises 23:11:54 0° 349° (NNW) 3,641 8.7 -25.4°
Reaches altitude 10° 23:14:25 10° 350° (N) 2,688 7.8 -25.4°
Maximum altitude 23:20:35 78° 77° (ENE) 974 4.4 -25.3°
Enters shadow 23:21:57 56° 149° (SSE) 1,122 4.5 -25.3°
